This demonstration page uses our WeatherBlox Daily Observations layout. Learn more.

38.80484, -77.04692

Hourly Observations for April 3, 2019

Temp ( °F °C ) Dew Point ( °F °C ) Humidity (%) Winds ( mph kmh ) Pressure ( in mb ) Visibility ( mi km ) Precip ( " mm )
12:17 am 00:17 Partly Cloudy 44 6.7 37 2.8 76 76 N 9 15 30.09 1019 10 16.0934 0 0
12:52 am 00:52 Mostly Clear 44 6.7 37 2.8 76 76 NW 6 9 30.08 1019 10 16.0934 0 0
1:52 am 01:52 Clear 43 6.1 35 1.7 74 74 NNW 6 9 30.09 1019 10 16.0934 0 0
2:52 am 02:52 Clear 41 5 34 1.1 76 76 NNW 6 9 30.09 1019 10 16.0934 0 0
3:52 am 03:52 Clear 42 5.6 33 0.6 71 71 NW 7 11 30.1 1019 10 16.0934 0 0
4:52 am 04:52 Clear 40 4.4 33 0.6 77 77 Calm 30.11 1020 10 16.0934 0 0
5:52 am 05:52 Clear 38 3.3 33 0.6 83 83 WSW 7 11 30.13 1020 10 16.0934 0 0
6:52 am 06:52 Sunny 39 3.9 32 0 76 76 SSW 5 7 30.15 1021 10 16.0934 0 0
7:52 am 07:52 Sunny 40 4.4 32 0 73 73 SSW 7 11 30.18 1022 10 16.0934 0 0
8:52 am 08:52 Sunny 45 7.2 34 1.1 66 66 SSW 8 13 30.19 1022 10 16.0934 0 0
9:52 am 09:52 Sunny 51 10.6 34 1.1 52 52 S 7 11 30.19 1022 10 16.0934 0 0
10:52 am 10:52 Sunny 56 13.3 36 2.2 47 47 S 10 17 30.19 1022 10 16.0934 0 0
11:52 am 11:52 Sunny 63 17.2 31 -0.6 30 30 W 15 24 30.17 1022 10 16.0934 0 0
12:52 pm 12:52 Mostly Sunny 67 19.4 31 -0.6 26 26 W 14 22 30.16 1021 10 16.0934 0 0
1:52 pm 13:52 Mostly Sunny 70 21.1 29 -1.7 22 22 W 13 20 30.14 1021 10 16.0934 0 0
2:52 pm 14:52 Mostly Sunny 71 21.7 25 -3.9 18 18 WNW 20 31 30.12 1020 10 16.0934 0 0
3:52 pm 15:52 Sunny 72 22.2 25 -3.9 17 17 W 17 28 30.11 1020 10 16.0934 0 0
4:52 pm 16:52 Sunny 71 21.7 21 -6.1 15 15 WNW 16 26 30.11 1020 10 16.0934 0 0
5:52 pm 17:52 Mostly Sunny 71 21.7 20 -6.7 14 14 NW 15 24 30.13 1020 10 16.0934 0 0
6:52 pm 18:52 Mostly Sunny 68 20 21 -6.1 17 17 WNW 9 15 30.16 1021 10 16.0934 0 0
7:52 pm 19:52 Mostly Clear 65 18.3 22 -5.6 19 19 NW 15 24 30.19 1022 10 16.0934 0 0
8:52 pm 20:52 Mostly Clear 62 16.7 22 -5.6 21 21 NNW 8 13 30.22 1023 10 16.0934 0 0
9:52 pm 21:52 Mostly Clear 61 16.1 23 -5 23 23 NW 7 11 30.25 1024 10 16.0934 0 0
10:52 pm 22:52 Mostly Cloudy 58 14.4 24 -4.4 27 27 NNW 5 7 30.26 1025 10 16.0934 0 0
11:52 pm 23:52 Mostly Cloudy 55 12.8 25 -3.9 31 31 NNW 8 13 30.28 1025 10 16.0934 0 0

Powered by AerisWeather